TimeEST,TemperatureF,Dew PointF,Humidity,Sea Level PressureIn,VisibilityMPH,Wind Direction,Wind SpeedMPH,Gust SpeedMPH,PrecipitationIn,Events,Conditions,WindDirDegrees,DateUTC
12:29 AM,23.0,17.6,80,29.73,2.5,Calm,Calm,-,0.00,Snow,Light Snow,0,2013-02-21 05:29:00
12:36 AM,24.8,17.6,74,29.73,3.0,Calm,Calm,-,0.00,Snow,Light Snow,0,2013-02-21 05:36:00
12:53 AM,24.1,16.0,71,29.77,9.0,West,9.2,-,0.00,,Overcast,270,2013-02-21 05:53:00
1:53 AM,23.0,10.0,58,29.78,10.0,WNW,10.4,20.7,N/A,,Overcast,300,2013-02-21 06:53:00
2:53 AM,21.9,9.0,58,29.78,10.0,West,10.4,-,N/A,,Clear,260,2013-02-21 07:53:00
3:53 AM,21.0,8.1,57,29.78,10.0,WSW,6.9,-,N/A,,Scattered Clouds,240,2013-02-21 08:53:00
4:53 AM,19.9,7.0,57,29.80,10.0,NW,8.1,18.4,N/A,,Mostly Cloudy,310,2013-02-21 09:53:00
6:53 AM,18.0,9.0,68,29.86,9.0,North,5.8,-,0.00,,Overcast,350,2013-02-21 11:53:00
7:17 AM,17.6,8.6,68,29.83,2.0,North,6.9,-,0.00,Snow,Light Snow,360,2013-02-21 12:17:00
7:39 AM,17.6,10.4,73,29.84,2.0,North,5.8,-,0.00,Snow,Light Snow,350,2013-02-21 12:39:00
7:53 AM,17.1,10.0,74,29.89,2.0,North,8.1,-,0.00,Snow,Light Snow,10,2013-02-21 12:53:00
8:33 AM,17.6,10.4,73,29.85,3.0,NW,4.6,-,0.00,Snow,Light Snow,320,2013-02-21 13:33:00
8:53 AM,18.0,9.0,68,29.90,4.0,NW,6.9,-,0.00,Snow,Light Snow,320,2013-02-21 13:53:00
9:23 AM,19.4,8.6,63,29.86,5.0,NNW,9.2,-,0.00,Snow,Light Snow,340,2013-02-21 14:23:00
9:53 AM,19.0,8.1,62,29.90,10.0,North,9.2,-,0.00,,Overcast,360,2013-02-21 14:53:00
10:46 AM,19.4,6.8,58,29.87,10.0,North,10.4,17.3,N/A,,Overcast,350,2013-02-21 15:46:00
10:53 AM,19.9,7.0,57,29.91,10.0,NW,9.2,18.4,N/A,,Mostly Cloudy,320,2013-02-21 15:53:00
11:53 AM,24.1,8.1,51,29.92,10.0,NNW,12.7,21.9,N/A,,Mostly Cloudy,340,2013-02-21 16:53:00
1:53 PM,25.0,10.0,53,29.96,10.0,NW,10.4,17.3,N/A,,Overcast,320,2013-02-21 18:53:00
2:53 PM,25.0,10.9,55,29.98,10.0,NNW,15.0,23.0,N/A,,Overcast,330,2013-02-21 19:53:00
3:53 PM,24.1,10.0,55,30.02,10.0,NNW,17.3,25.3,N/A,,Overcast,340,2013-02-21 20:53:00
4:53 PM,23.0,10.9,60,30.08,10.0,North,8.1,19.6,N/A,,Overcast,350,2013-02-21 21:53:00
5:53 PM,21.9,12.0,66,30.12,10.0,North,10.4,-,N/A,,Overcast,360,2013-02-21 22:53:00
6:13 PM,23.0,12.2,63,30.10,10.0,NNE,9.2,-,N/A,,Overcast,20,2013-02-21 23:13:00
6:24 PM,23.0,12.2,63,30.10,10.0,North,9.2,-,N/A,,Overcast,360,2013-02-21 23:24:00
6:53 PM,23.0,12.0,63,30.16,10.0,North,8.1,-,N/A,,Mostly Cloudy,350,2013-02-21 23:53:00
7:53 PM,21.9,12.0,66,30.18,10.0,North,3.5,-,N/A,,Partly Cloudy,350,2013-02-22 00:53:00
8:38 PM,21.2,12.2,68,30.16,10.0,Variable,3.5,-,N/A,,Mostly Cloudy,0,2013-02-22 01:38:00
8:53 PM,21.0,12.0,68,30.21,10.0,Calm,Calm,-,N/A,,Mostly Cloudy,0,2013-02-22 01:53:00
9:53 PM,21.0,12.9,71,30.24,10.0,Calm,Calm,-,N/A,,Overcast,0,2013-02-22 02:53:00
10:53 PM,23.0,14.0,68,30.27,10.0,North,3.5,-,N/A,,Overcast,360,2013-02-22 03:53:00
11:53 PM,25.0,16.0,69,30.31,10.0,NW,9.2,-,N/A,,Overcast,320,2013-02-22 04:53:00